EW7038 Weather Reports


Display with metric or nautical units.
time (UTC)temp
F
wind
direction
speed
MPH
gust
MPH
rain 1hr
in
rain 24hr
in
rain mn
in
humidity
%
barometer
mb
20260831173239 66 42 1.0 4.0 0.00 0.00 0.00 59 1011.4
20260831165305 63 66 1.0 3.0 0.00 0.00 0.00 54 1012.8
20260831164804 62 64 2.0 3.0 0.00 0.00 0.00 55 1012.9
20260831164304 62 13 2.0 3.0 0.00 0.00 0.00 54 1012.9
20260831163808 62 59 2.0 3.0 0.00 0.00 0.00 52 1013.0
20260831163303 63 19 1.0 3.0 0.00 0.00 0.00 52 1013.0
20260831162805 63 19 1.0 2.0 0.00 0.00 0.00 52 1013.1
20260831162306 63 83 2.0 3.0 0.00 0.00 0.00 51 1013.1
20260831161804 62 115 1.0 3.0 0.00 0.00 0.00 52 1013.2
20260831161304 62 69 2.0 3.0 0.00 0.00 0.00 52 1013.2
20260831160804 62 144 1.0 3.0 0.00 0.00 0.00 52 1013.3
20260831160304 61 85 1.0 2.0 0.00 0.00 0.00 54 1013.3
20260831155804 61 60 2.0 3.0 0.00 0.00 0.00 53 1013.4
20260831155306 60 301 1.0 3.0 0.00 0.00 0.00 55 1013.4
20260831154805 60 130 1.0 3.0 0.00 0.00 0.00 56 1013.4
20260831154304 59 131 2.0 3.0 0.00 0.00 0.00 56 1013.5
20260831153804 59 137 2.0 3.0 0.00 0.00 0.00 57 1013.5
20260831153305 58 105 2.0 5.0 0.00 0.00 0.00 59 1013.4
20260831152804 58 102 2.0 3.0 0.00 0.00 0.00 60 1013.5
20260831152306 58 87 2.0 3.0 0.00 0.00 0.00 61 1013.4
20260831151804 57 80 2.0 2.0 0.00 0.00 0.00 61 1013.4
20260831151304 57 131 2.0 5.0 0.00 0.00 0.00 62 1013.5
20260831150804 56 108 1.0 3.0 0.00 0.00 0.00 64 1013.5
20260831145804 55 147 2.0 3.0 0.00 0.00 0.00 67 1013.4
20260831145306 54 137 2.0 2.0 0.00 0.00 0.00 67 1013.4
20260831144805 53 151 2.0 5.0 0.00 0.00 0.00 69 1013.4
20260831144304 52 164 3.0 5.0 0.00 0.00 0.00 70 1013.4
20260831143804 52 164 2.0 3.0 0.00 0.00 0.00 73 1013.5
20260831143304 51 166 2.0 3.0 0.00 0.00 0.00 74 1013.5
20260831142306 50 154 2.0 3.0 0.00 0.00 0.00 74 1013.5
20260831141804 50 147 2.0 3.0 0.00 0.00 0.00 74 1013.5
20260831141304 50 149 2.0 3.0 0.00 0.00 0.00 74 1013.5
20260831140804 50 140 2.0 5.0 0.00 0.00 0.00 75 1013.4
20260831140304 49 132 3.0 3.0 0.00 0.00 0.00 76 1013.4
20260831134804 50 144 3.0 3.0 0.00 0.00 0.00 75 1013.3
20260831134304 50 156 2.0 3.0 0.00 0.00 0.00 75 1013.2
20260831133803 50 133 2.0 2.0 0.00 0.00 0.00 74 1013.2
20260831132804 51 155 2.0 3.0 0.00 0.00 0.00 74 1013.2
20260831132306 51 149 2.0 3.0 0.00 0.00 0.00 72 1013.2
20260831131304 52 156 2.0 3.0 0.00 0.00 0.00 71 1013.2
20260831130804 52 164 2.0 2.0 0.00 0.00 0.00 71 1013.2
20260831130304 52 133 2.0 3.0 0.00 0.00 0.00 72 1013.2
20260831125306 52 161 2.0 3.0 0.00 0.00 0.00 72 1013.3
20260831124804 52 160 2.0 2.0 0.00 0.00 0.00 71 1013.3
20260831124305 52 167 2.0 3.0 0.00 0.00 0.00 72 1013.3
20260831123804 52 132 2.0 3.0 0.00 0.00 0.00 71 1013.2
20260831123304 53 158 2.0 3.0 0.00 0.00 0.00 70 1013.2
20260831122804 53 164 2.0 3.0 0.00 0.00 0.00 71 1013.2
20260831121804 52 144 2.0 3.0 0.00 0.00 0.00 71 1013.1
20260831121304 52 154 2.0 3.0 0.00 0.00 0.00 71 1013.2
20260831120804 52 145 2.0 3.0 0.00 0.00 0.00 72 1013.1
20260831120304 52 148 2.0 3.0 0.00 0.00 0.00 71 1013.1
20260831115804 53 142 2.0 3.0 0.00 0.00 0.00 71 1013.2
20260831114804 53 154 2.0 3.0 0.00 0.00 0.00 71 1013.2
20260831113805 53 158 2.0 3.0 0.00 0.00 0.00 70 1013.2
20260831113304 53 137 2.0 3.0 0.00 0.00 0.00 70 1013.2
20260831111804 54 143 2.0 3.0 0.00 0.00 0.00 69 1013.2
20260831111304 53 168 2.0 3.0 0.00 0.00 0.00 70 1013.2
20260831110804 53 163 2.0 3.0 0.00 0.00 0.00 70 1013.2
20260831110303 53 172 2.0 3.0 0.00 0.00 0.00 71 1013.2
20260831105804 53 157 2.0 3.0 0.00 0.00 0.00 70 1013.2
20260831105306 54 154 2.0 3.0 0.00 0.00 0.00 69 1013.2
20260831104804 54 171 2.0 3.0 0.00 0.00 0.00 69 1013.3
20260831103804 54 168 2.0 3.0 0.00 0.00 0.00 69 1013.2
20260831103304 54 156 2.0 3.0 0.00 0.00 0.00 69 1013.2
20260831102803 54 172 2.0 3.0 0.00 0.00 0.00 69 1013.2
20260831102306 54 184 2.0 3.0 0.00 0.00 0.00 68 1013.3
20260831101804 54 154 2.0 3.0 0.00 0.00 0.00 69 1013.2
20260831101304 55 162 2.0 2.0 0.00 0.00 0.00 68 1013.2
20260831100804 55 157 2.0 3.0 0.00 0.00 0.00 69 1013.2
20260831095805 54 156 2.0 3.0 0.00 0.00 0.00 69 1013.4
20260831095306 54 154 2.0 3.0 0.00 0.00 0.00 69 1013.4
20260831094804 55 162 2.0 3.0 0.00 0.00 0.00 68 1013.4
20260831094304 55 155 2.0 3.0 0.00 0.00 0.00 67 1013.5
20260831093804 55 159 2.0 2.0 0.00 0.00 0.00 68 1013.5
20260831093304 55 148 2.0 2.0 0.00 0.00 0.00 67 1013.6
20260831092804 55 160 2.0 2.0 0.00 0.00 0.00 67 1013.6
20260831091804 56 154 2.0 2.0 0.00 0.00 0.00 66 1013.6
20260831091304 56 152 2.0 2.0 0.00 0.00 0.00 66 1013.6
20260831090304 56 153 2.0 2.0 0.00 0.00 0.00 65 1013.6
20260831085806 57 153 2.0 2.0 0.00 0.00 0.00 64 1013.6
20260831085306 57 137 1.0 2.0 0.00 0.00 0.00 64 1013.7
20260831084804 57 140 2.0 2.0 0.00 0.00 0.00 64 1013.7
20260831084304 57 156 2.0 2.0 0.00 0.00 0.00 64 1013.8
20260831083805 57 150 1.0 2.0 0.00 0.00 0.00 64 1013.7
20260831083304 58 141 2.0 2.0 0.00 0.00 0.00 63 1013.7
20260831082805 58 149 2.0 3.0 0.00 0.00 0.00 62 1013.7
20260831082306 59 144 2.0 2.0 0.00 0.00 0.00 61 1013.7
20260831081304 58 134 1.0 2.0 0.00 0.00 0.00 62 1013.9
20260831080804 58 142 2.0 2.0 0.00 0.00 0.00 62 1013.9
20260831080304 59 145 2.0 2.0 0.00 0.00 0.00 60 1013.9
20260831075805 59 134 2.0 3.0 0.00 0.00 0.00 60 1013.9
20260831075306 60 136 2.0 3.0 0.00 0.00 0.00 58 1013.9
20260831074304 60 188 2.0 3.0 0.00 0.00 0.00 58 1013.9
20260831073804 60 181 2.0 3.0 0.00 0.00 0.00 58 1013.9
20260831072804 61 179 2.0 2.0 0.00 0.00 0.00 57 1013.9
20260831072306 62 185 3.0 8.0 0.00 0.00 0.00 57 1014.0
20260831071804 61 231 3.0 8.0 0.00 0.00 0.00 58 1014.0
20260831071305 61 242 2.0 6.0 0.00 0.00 0.00 58 1014.0
20260831070803 62 142 1.0 2.0 0.00 0.00 0.00 56 1014.0
20260831070304 62 135 1.0 2.0 0.00 0.00 0.00 55 1014.0
20260831065804 62 139 1.0 2.0 0.00 0.00 0.00 54 1014.0
20260831064804 64 134 1.0 2.0 0.00 0.00 0.00 52 1013.9
20260831064307 64 227 2.0 8.0 0.00 0.00 0.00 52 1013.8
20260831063304 65 275 2.0 9.0 0.00 0.00 0.00 51 1013.9
20260831062804 65 258 2.0 10.0 0.00 0.00 0.00 51 1013.9
20260831061804 65 254 5.0 10.0 0.00 0.00 0.00 51 1014.1
20260831061304 65 249 6.0 12.0 0.00 0.00 0.00 51 1014.1
20260831060804 65 257 7.0 13.0 0.00 0.00 0.00 50 1014.1
20260831060304 65 255 6.0 12.0 0.00 0.00 0.00 51 1014.1
20260831055804 65 237 7.0 12.0 0.00 0.00 0.00 50 1014.1
20260831055306 65 266 6.0 12.0 0.00 0.00 0.00 51 1014.1
20260831054804 65 271 6.0 10.0 0.00 0.00 0.00 50 1014.1
20260831054304 66 284 6.0 9.0 0.00 0.00 0.00 49 1014.1
20260831053804 66 267 6.0 10.0 0.00 0.00 0.00 48 1014.2
20260831053303 66 256 6.0 15.0 0.00 0.00 0.00 48 1014.3
20260831052307 66 265 5.0 9.0 0.00 0.00 0.00 47 1014.3
20260831051804 67 269 5.0 9.0 0.00 0.00 0.00 47 1014.3
20260831051304 67 256 7.0 12.0 0.00 0.00 0.00 46 1014.3
20260831050804 67 304 5.0 10.0 0.00 0.00 0.00 46 1014.3
20260831050304 67 264 7.0 12.0 0.00 0.00 0.00 46 1014.3
20260831045804 67 271 7.0 12.0 0.00 0.00 0.00 46 1014.3
20260831045306 67 266 6.0 14.0 0.00 0.00 0.00 46 1014.3
20260831044804 67 254 9.0 20.0 0.00 0.00 0.00 45 1014.2
20260831044304 67 238 6.0 14.0 0.00 0.00 0.00 45 1014.2
20260831043805 67 263 9.0 13.0 0.00 0.00 0.00 45 1014.2
20260831043304 68 246 6.0 13.0 0.00 0.00 0.00 45 1014.3
20260831042805 68 261 8.0 16.0 0.00 0.00 0.00 45 1014.2
20260831042306 68 239 8.0 15.0 0.00 0.00 0.00 45 1014.2
20260831041804 68 266 5.0 13.0 0.00 0.00 0.00 45 1014.2
20260831041304 68 236 8.0 17.0 0.00 0.00 0.00 44 1014.2
20260831040804 68 262 9.0 15.0 0.00 0.00 0.00 44 1014.2
20260831040304 68 286 8.0 17.0 0.00 0.00 0.00 43 1014.2
20260831035306 68 298 9.0 16.0 0.00 0.00 0.00 43 1014.2
20260831034305 69 271 12.0 20.0 0.00 0.00 0.00 42 1014.0
20260831033804 69 270 9.0 16.0 0.00 0.00 0.00 42 1014.0
20260831033304 69 265 12.0 22.0 0.00 0.00 0.00 42 1014.0
20260831032804 69 261 9.0 18.0 0.00 0.00 0.00 42 1013.9
20260831032306 69 271 12.0 20.0 0.00 0.00 0.00 41 1013.9
20260831031804 69 286 10.0 18.0 0.00 0.00 0.00 41 1013.9
20260831031304 69 262 13.0 23.0 0.00 0.00 0.00 41 1013.9
20260831030804 69 282 12.0 21.0 0.00 0.00 0.00 40 1013.8
20260831030304 70 281 10.0 21.0 0.00 0.00 0.00 40 1013.8
20260831025803 70 262 12.0 23.0 0.00 0.00 0.00 40 1013.8
20260831025306 70 255 10.0 20.0 0.00 0.00 0.00 40 1013.8
20260831024804 70 275 12.0 21.0 0.00 0.00 0.00 40 1013.8
20260831024304 70 267 9.0 16.0 0.00 0.00 0.00 40 1013.8
20260831023804 70 286 10.0 21.0 0.00 0.00 0.00 39 1013.8
20260831023304 70 285 12.0 20.0 0.00 0.00 0.00 39 1013.8
20260831022804 71 245 9.0 18.0 0.00 0.00 0.00 39 1013.9
20260831022306 71 267 11.0 20.0 0.00 0.00 0.00 38 1013.8
20260831021804 71 267 13.0 21.0 0.00 0.00 0.00 39 1013.8
20260831021304 71 260 11.0 17.0 0.00 0.00 0.00 38 1013.9
20260831020304 72 272 10.0 20.0 0.00 0.00 0.00 37 1013.9
20260831015804 72 281 8.0 18.0 0.00 0.00 0.00 37 1013.8
20260831015305 72 280 7.0 22.0 0.00 0.00 0.00 36 1013.7
20260831014804 72 271 9.0 21.0 0.00 0.00 0.00 36 1013.8
20260831013804 73 281 6.0 14.0 0.00 0.00 0.00 35 1013.7
20260831013304 73 298 9.0 20.0 0.00 0.00 0.00 35 1013.8
20260831012804 73 270 7.0 17.0 0.00 0.00 0.00 34 1013.8
20260831011804 73 278 10.0 17.0 0.00 0.00 0.00 34 1013.9
20260831011304 73 288 6.0 16.0 0.00 0.00 0.00 34 1013.9
20260831010804 73 275 8.0 16.0 0.00 0.00 0.00 33 1013.9
20260831010304 74 310 7.0 14.0 0.00 0.00 0.00 33 1013.9
20260831005804 74 267 7.0 17.0 0.00 0.00 0.00 33 1013.9
20260831004804 74 315 6.0 12.0 0.00 0.00 0.00 32 1014.0
20260831004303 74 317 6.0 14.0 0.00 0.00 0.00 32 1014.1
20260831003304 74 312 7.0 15.0 0.00 0.00 0.00 32 1014.0
20260831002804 74 318 7.0 18.0 0.00 0.00 0.00 31 1014.1
20260831002306 74 321 9.0 16.0 0.00 0.00 0.00 32 1014.1
20260831001804 74 304 10.0 18.0 0.00 0.00 0.00 32 1014.1
20260831001304 74 273 13.0 23.0 0.00 0.00 0.00 32 1014.1
20260831000804 74 260 12.0 20.0 0.00 0.00 0.00 34 1014.2
20260831000304 74 266 11.0 18.0 0.00 0.00 0.00 32 1014.2
20260830235805 73 270 10.0 20.0 0.00 0.00 0.00 32 1014.1
20260830235306 74 277 12.0 21.0 0.00 0.00 0.00 32 1014.1
20260830234804 74 263 12.0 20.0 0.00 0.00 0.00 31 1014.2
20260830234304 73 262 13.0 21.0 0.00 0.00 0.00 31 1014.3
20260830233804 73 261 13.0 18.0 0.00 0.00 0.00 33 1014.3
20260830233305 73 279 12.0 20.0 0.00 0.00 0.00 32 1014.5
20260830232805 73 264 12.0 21.0 0.00 0.00 0.00 30 1014.5
20260830232306 73 281 13.0 24.0 0.00 0.00 0.00 33 1014.5
20260830231804 73 269 12.0 20.0 0.00 0.00 0.00 33 1014.7
20260830231304 73 306 12.0 23.0 0.00 0.00 0.00 33 1014.7
20260830230804 73 261 12.0 22.0 0.00 0.00 0.00 34 1014.7
20260830230305 73 283 13.0 22.0 0.00 0.00 0.00 34 1014.8
20260830224803 72 271 12.0 18.0 0.00 0.00 0.00 34 1014.9
20260830224304 72 263 13.0 23.0 0.00 0.00 0.00 35 1015.0
20260830223803 72 268 12.0 21.0 0.00 0.00 0.00 35 1015.1
20260830223304 72 261 13.0 23.0 0.00 0.00 0.00 35 1015.3
20260830222804 72 267 14.0 23.0 0.00 0.00 0.00 36 1015.3
20260830222306 72 288 12.0 21.0 0.00 0.00 0.00 34 1015.4
20260830221304 71 274 13.0 20.0 0.00 0.00 0.00 36 1015.5
20260830220804 71 271 13.0 21.0 0.00 0.00 0.00 34 1015.6
20260830215804 71 259 13.0 23.0 0.00 0.00 0.00 33 1015.7
20260830215305 71 257 13.0 20.0 0.00 0.00 0.00 35 1015.8
20260830214804 71 270 13.0 23.0 0.00 0.00 0.00 36 1015.8
20260830214304 71 273 14.0 23.0 0.00 0.00 0.00 37 1015.8
20260830213803 71 263 12.0 20.0 0.00 0.00 0.00 36 1016.0
20260830213304 70 265 11.0 22.0 0.00 0.00 0.00 36 1016.2
20260830212804 70 294 12.0 22.0 0.00 0.00 0.00 36 1016.1
20260830212306 70 284 10.0 25.0 0.00 0.00 0.00 36 1016.2
20260830211804 70 262 9.0 23.0 0.00 0.00 0.00 37 1016.3
20260830210804 70 260 13.0 20.0 0.00 0.00 0.00 38 1016.2
20260830210304 70 285 9.0 22.0 0.00 0.00 0.00 36 1016.3
20260830205804 69 280 9.0 21.0 0.00 0.00 0.00 36 1016.3
20260830205305 69 287 9.0 23.0 0.00 0.00 0.00 38 1016.3
20260830204804 69 290 10.0 18.0 0.00 0.00 0.00 38 1016.4
20260830202305 68 258 12.0 18.0 0.00 0.00 0.00 39 1016.8
20260830201805 68 272 14.0 22.0 0.00 0.00 0.00 41 1016.8
20260830201304 67 282 13.0 23.0 0.00 0.00 0.00 40 1016.9
20260830200804 67 258 13.0 21.0 0.00 0.00 0.00 41 1017.0
20260830200303 67 273 14.0 25.0 0.00 0.00 0.00 41 1017.0
20260830195804 67 259 14.0 22.0 0.00 0.00 0.00 41 1017.0
20260830194804 67 266 12.0 20.0 0.00 0.00 0.00 41 1017.2
20260830194304 66 292 9.0 22.0 0.00 0.00 0.00 42 1017.3
20260830193804 66 278 12.0 21.0 0.00 0.00 0.00 41 1017.3
20260830193304 66 285 12.0 21.0 0.00 0.00 0.00 40 1017.3
20260830192804 66 275 13.0 23.0 0.00 0.00 0.00 42 1017.4
20260830192305 66 269 10.0 20.0 0.00 0.00 0.00 40 1017.4
20260830191804 66 273 12.0 28.0 0.00 0.00 0.00 42 1017.5
20260830191304 66 280 10.0 22.0 0.00 0.00 0.00 42 1017.6
20260830190804 65 279 11.0 22.0 0.00 0.00 0.00 41 1017.6
20260830190304 65 278 14.0 23.0 0.00 0.00 0.00 44 1017.7
20260830185804 65 270 12.0 24.0 0.00 0.00 0.00 43 1017.6
20260830184804 65 294 10.0 21.0 0.00 0.00 0.00 42 1017.8
20260830184304 64 279 9.0 23.0 0.00 0.00 0.00 43 1017.9
20260830183804 64 271 9.0 20.0 0.00 0.00 0.00 44 1018.1
20260830183304 64 282 10.0 20.0 0.00 0.00 0.00 44 1018.1
20260830182804 64 261 12.0 20.0 0.00 0.00 0.00 44 1018.1
20260830182306 64 272 10.0 18.0 0.00 0.00 0.00 44 1018.2
20260830181804 63 257 11.0 25.0 0.00 0.00 0.00 44 1018.2
20260830181304 63 270 13.0 22.0 0.00 0.00 0.00 45 1018.2
20260830180804 63 273 12.0 24.0 0.00 0.00 0.00 44 1018.2
20260830180304 63 285 11.0 20.0 0.00 0.00 0.00 45 1018.2
20260830175804 62 283 12.0 24.0 0.00 0.00 0.00 45 1018.2